When you browse on this site, cookies collect data to enhance your experience and personalize the content and advertising you see.
Visit our Privacy Policy to learn more. By continuing to use the site, you agree to this use of cookies and data.

Hourly Weather Sharan

Today, 25 September, Friday

Time Temperature Precipitation Wind Pressure Humidity
00:00 +17°C° 0 mm 2 mps 586 mmHg 13%
01:00 +17°C° 0 mm 2 mps 586 mmHg 14%
02:00 +16°C° 0 mm 2 mps 585 mmHg 14%
03:00 +15°C° 0 mm 2 mps 585 mmHg 16%
04:00 +14°C° 0 mm 2 mps 584 mmHg 17%
05:00 +14°C° 0 mm 2 mps 584 mmHg 18%
06:00 +15°C° 0 mm 2 mps 585 mmHg 17%
07:00 +15°C° 0 mm 2 mps 585 mmHg 17%
08:00 +16°C° 0 mm 2 mps 586 mmHg 16%
09:00 +18°C° 0 mm 2 mps 586 mmHg 14%
10:00 +20°C° 0 mm 2 mps 587 mmHg 12%
11:00 +21°C° 0 mm 2 mps 587 mmHg 10%
12:00 +22°C° 0 mm 3 mps 587 mmHg 9%
13:00 +25°C° 0 mm 3 mps 587 mmHg 8%
14:00 +26°C° 0 mm 4 mps 587 mmHg 8%
15:00 +26°C° 0 mm 4 mps 587 mmHg 8%
16:00 +26°C° 0 mm 4 mps 587 mmHg 8%
17:00 +25°C° 0 mm 5 mps 587 mmHg 8%
18:00 +23°C° 0 mm 5 mps 586 mmHg 10%
19:00 +21°C° 0 mm 5 mps 586 mmHg 11%
20:00 +20°C° 0 mm 5 mps 586 mmHg 13%
21:00 +19°C° 0 mm 5 mps 585 mmHg 15%
22:00 +18°C° 0 mm 4 mps 585 mmHg 16%
23:00 +16°C° 0 mm 3 mps 584 mmHg 18%

Tomorrow, 26 September, Saturday

Time Temperature Precipitation Wind Pressure Humidity
00:00 +16°C° 0 mm 3 mps 584 mmHg 19%
01:00 +15°C° 0 mm 2 mps 584 mmHg 19%
02:00 +14°C° 0 mm 1 mps 583 mmHg 20%
03:00 +14°C° 0 mm 1 mps 583 mmHg 21%
04:00 +13°C° 0 mm 1 mps 583 mmHg 22%
05:00 +12°C° 0 mm 1 mps 582 mmHg 22%
06:00 +13°C° 0 mm 1 mps 583 mmHg 21%
07:00 +14°C° 0 mm 1 mps 584 mmHg 19%
08:00 +14°C° 0 mm 0 mps 585 mmHg 18%
09:00 +16°C° 0 mm 0 mps 585 mmHg 17%
10:00 +20°C° 0 mm 1 mps 586 mmHg 15%
11:00 +22°C° 0 mm 1 mps 586 mmHg 14%
12:00 +23°C° 0 mm 1 mps 586 mmHg 12%
13:00 +24°C° 0 mm 2 mps 587 mmHg 11%
14:00 +26°C° 0 mm 3 mps 587 mmHg 9%
15:00 +26°C° 0 mm 4 mps 586 mmHg 9%
16:00 +25°C° 0 mm 5 mps 586 mmHg 8%
17:00 +24°C° 0 mm 6 mps 586 mmHg 8%
18:00 +23°C° 0 mm 6 mps 586 mmHg 8%
19:00 +21°C° 0 mm 5 mps 586 mmHg 9%
20:00 +19°C° 0 mm 5 mps 585 mmHg 9%
21:00 +18°C° 0 mm 4 mps 585 mmHg 10%
22:00 +17°C° 0 mm 3 mps 585 mmHg 11%
23:00 +16°C° 0 mm 3 mps 585 mmHg 12%

Day after tomorrow, 27 September, Sunday

Time Temperature Precipitation Wind Pressure Humidity
00:00 +16°C° 0 mm 2 mps 585 mmHg 13%
01:00 +15°C° 0 mm 2 mps 584 mmHg 14%
02:00 +14°C° 0 mm 1 mps 584 mmHg 15%
03:00 +14°C° 0 mm 1 mps 584 mmHg 16%
04:00 +13°C° 0 mm 1 mps 584 mmHg 17%
05:00 +12°C° 0 mm 1 mps 583 mmHg 18%
06:00 +12°C° 0 mm 0 mps 584 mmHg 16%
07:00 +14°C° 0 mm 0 mps 585 mmHg 15%
08:00 +15°C° 0 mm 0 mps 586 mmHg 13%
09:00 +18°C° 0 mm 1 mps 587 mmHg 12%
10:00 +20°C° 0 mm 1 mps 587 mmHg 11%
11:00 +20°C° 0 mm 2 mps 588 mmHg 10%
12:00 +23°C° 0 mm 2 mps 588 mmHg 8%
13:00 +24°C° 0 mm 3 mps 588 mmHg 7%
14:00 +25°C° 0 mm 4 mps 588 mmHg 6%
15:00 +25°C° 0 mm 5 mps 588 mmHg 6%
16:00 +25°C° 0 mm 5 mps 588 mmHg 6%
17:00 +23°C° 0 mm 5 mps 587 mmHg 6%
18:00 +22°C° 0 mm 4 mps 587 mmHg 9%
19:00 +20°C° 0 mm 3 mps 587 mmHg 11%
20:00 +19°C° 0 mm 2 mps 587 mmHg 14%
21:00 +18°C° 0 mm 2 mps 587 mmHg 16%
22:00 +17°C° 0 mm 2 mps 587 mmHg 18%
23:00 +17°C° 0 mm 2 mps 587 mmHg 21%

28 September, Monday

Time Temperature Precipitation Wind Pressure Humidity
00:00 +16°C° 0 mm 2 mps 586 mmHg 23%
01:00 +15°C° 0 mm 2 mps 586 mmHg 26%
02:00 +14°C° 0 mm 1 mps 585 mmHg 29%
03:00 +14°C° 0 mm 1 mps 585 mmHg 31%
04:00 +13°C° 0 mm 1 mps 585 mmHg 33%
05:00 +11°C° 0 mm 0 mps 584 mmHg 35%
06:00 +13°C° 0 mm 0 mps 585 mmHg 33%
07:00 +14°C° 0 mm 0 mps 586 mmHg 30%
08:00 +15°C° 0 mm 0 mps 587 mmHg 27%
09:00 +19°C° 0 mm 1 mps 588 mmHg 23%
10:00 +19°C° 0 mm 2 mps 589 mmHg 18%
11:00 +21°C° 0 mm 3 mps 589 mmHg 13%
12:00 +22°C° 0 mm 3 mps 589 mmHg 11%
13:00 +23°C° 0 mm 4 mps 589 mmHg 9%
14:00 +25°C° 0 mm 5 mps 589 mmHg 8%
15:00 +25°C° 0 mm 5 mps 589 mmHg 7%
16:00 +23°C° 0 mm 5 mps 588 mmHg 7%
17:00 +23°C° 0 mm 5 mps 588 mmHg 7%
18:00 +22°C° 0 mm 4 mps 588 mmHg 8%
19:00 +20°C° 0 mm 3 mps 587 mmHg 9%
20:00 +19°C° 0 mm 3 mps 587 mmHg 11%
21:00 +18°C° 0 mm 3 mps 587 mmHg 13%
22:00 +18°C° 0 mm 3 mps 587 mmHg 15%
23:00 +17°C° 0 mm 2 mps 587 mmHg 18%

29 September, Tuesday

Time Temperature Precipitation Wind Pressure Humidity
00:00 +16°C° 0 mm 2 mps 586 mmHg 19%
01:00 +16°C° 0 mm 2 mps 586 mmHg 20%
02:00 +15°C° 0 mm 2 mps 585 mmHg 22%
03:00 +14°C° 0 mm 2 mps 585 mmHg 23%
04:00 +13°C° 0 mm 1 mps 584 mmHg 25%
05:00 +12°C° 0 mm 1 mps 584 mmHg 27%
06:00 +14°C° 0 mm 1 mps 584 mmHg 25%
07:00 +15°C° 0 mm 1 mps 585 mmHg 23%
08:00 +16°C° 0 mm 1 mps 586 mmHg 21%
09:00 +18°C° 0 mm 2 mps 587 mmHg 18%
10:00 +19°C° 0 mm 4 mps 587 mmHg 16%
11:00 +21°C° 0 mm 5 mps 588 mmHg 13%
12:00 +22°C° 0 mm 6 mps 588 mmHg 13%
13:00 +23°C° 0 mm 7 mps 588 mmHg 13%
14:00 +23°C° 0 mm 8 mps 588 mmHg 12%
15:00 +23°C° 0 mm 9 mps 587 mmHg 13%
16:00 +22°C° 0 mm 10 mps 587 mmHg 14%
17:00 +22°C° 0 mm 11 mps 586 mmHg 15%
18:00 +19°C° 0 mm 9 mps 586 mmHg 17%
19:00 +18°C° 0 mm 8 mps 586 mmHg 19%
20:00 +17°C° 0 mm 7 mps 586 mmHg 20%
21:00 +16°C° 0 mm 6 mps 586 mmHg 23%
22:00 +15°C° 0 mm 5 mps 585 mmHg 25%
23:00 +14°C° 0 mm 4 mps 585 mmHg 27%

30 September, Wednesday

Time Temperature Precipitation Wind Pressure Humidity
00:00 +13°C° 0 mm 4 mps 585 mmHg 29%
01:00 +12°C° 0 mm 3 mps 584 mmHg 31%
02:00 +13°C° 0 mm 2 mps 584 mmHg 33%
03:00 +12°C° 0 mm 2 mps 584 mmHg 35%
04:00 +10°C° 0 mm 2 mps 583 mmHg 36%
05:00 +10°C° 0 mm 2 mps 583 mmHg 38%
06:00 +10°C° 0 mm 2 mps 584 mmHg 35%
07:00 +12°C° 0 mm 2 mps 584 mmHg 33%
08:00 +12°C° 0 mm 2 mps 585 mmHg 31%
09:00 +14°C° 0 mm 2 mps 585 mmHg 28%
10:00 +15°C° 0 mm 2 mps 586 mmHg 24%
11:00 +16°C° 0 mm 2 mps 586 mmHg 21%
12:00 +18°C° 0 mm 2 mps 586 mmHg 17%
13:00 +19°C° 0 mm 3 mps 587 mmHg 14%
14:00 +20°C° 0 mm 4 mps 587 mmHg 10%
15:00 +20°C° 0 mm 4 mps 586 mmHg 9%
16:00 +20°C° 0 mm 5 mps 586 mmHg 9%
17:00 +19°C° 0 mm 5 mps 586 mmHg 8%
18:00 +18°C° 0 mm 4 mps 585 mmHg 9%
19:00 +16°C° 0 mm 3 mps 585 mmHg 9%
20:00 +14°C° 0 mm 3 mps 585 mmHg 10%
21:00 +14°C° 0 mm 2 mps 585 mmHg 10%
22:00 +13°C° 0 mm 2 mps 585 mmHg 10%
23:00 +12°C° 0 mm 2 mps 584 mmHg 10%
Show more